EZY24MV EGKK-LFRS

Flight info

Callsign EZY24MV
Flight time 0h 58m
Altitude 27000
Route IMVUR N63 SAM M195 IBNID/N0451F290 M195 MARUK N621 LELNA DCT DOMOK UT260 UPALO UN862 GODAN
Aircraft A320/M-SDE3FGHIRWY/LB1

Departure

Time 2026-05-04 19:45
Airport London Gatwick Airport (EGKK)

Arrival

Time 2026-05-04 20:43
Airport Nantes Atlantique Airport (LFRS)
Time Latitude Longitude Altitude Speed Heading
2026-05-04 18:55 51.15591 -0.17619 200 ft 0 kts 347°
2026-05-04 19:21 51.15588 -0.17618 200 ft 2 kts 348°
2026-05-04 19:21 51.15574 -0.17613 200 ft 2 kts 347°
2026-05-04 19:22 51.15559 -0.17608 200 ft 2 kts 347°
2026-05-04 19:22 51.15550 -0.17605 200 ft 2 kts 340°
2026-05-04 19:22 51.15538 -0.17591 200 ft 2 kts 305°
2026-05-04 19:22 51.15532 -0.17569 200 ft 2 kts 275°
2026-05-04 19:23 51.15532 -0.17555 200 ft 0 kts 256°
2026-05-04 19:23 51.15533 -0.17549 200 ft 0 kts 256°
2026-05-04 19:27 51.15533 -0.17550 200 ft 0 kts 257°
2026-05-04 19:27 51.15532 -0.17554 200 ft 0 kts 257°
2026-05-04 19:27 51.15531 -0.17561 200 ft 0 kts 257°
2026-05-04 19:27 51.15530 -0.17571 200 ft 1 kts 257°
2026-05-04 19:28 51.15528 -0.17587 200 ft 2 kts 258°
2026-05-04 19:28 51.15523 -0.17628 200 ft 5 kts 259°
2026-05-04 19:28 51.15514 -0.17697 200 ft 7 kts 257°
2026-05-04 19:28 51.15502 -0.17781 200 ft 7 kts 257°
2026-05-04 19:29 51.15493 -0.17845 200 ft 3 kts 258°
2026-05-04 19:29 51.15488 -0.17879 200 ft 1 kts 258°
2026-05-04 19:29 51.15487 -0.17890 200 ft 1 kts 257°
2026-05-04 19:29 51.15486 -0.17891 200 ft 0 kts 257°
2026-05-04 19:30 51.15486 -0.17893 200 ft 0 kts 258°
2026-05-04 19:30 51.15486 -0.17895 200 ft 0 kts 258°
2026-05-04 19:30 51.15486 -0.17896 200 ft 0 kts 258°
2026-05-04 19:32 51.15486 -0.17897 200 ft 0 kts 258°
2026-05-04 19:32 51.15486 -0.17898 200 ft 0 kts 258°
2026-05-04 19:32 51.15485 -0.17898 200 ft 0 kts 258°
2026-05-04 19:33 51.15485 -0.17899 200 ft 0 kts 258°
2026-05-04 19:34 51.15484 -0.17908 200 ft 1 kts 258°
2026-05-04 19:34 51.15480 -0.17934 200 ft 2 kts 257°
2026-05-04 19:34 51.15476 -0.17963 200 ft 2 kts 258°
2026-05-04 19:35 51.15472 -0.17996 200 ft 3 kts 258°
2026-05-04 19:35 51.15465 -0.18043 200 ft 5 kts 258°
2026-05-04 19:35 51.15456 -0.18108 200 ft 7 kts 258°
2026-05-04 19:35 51.15445 -0.18190 200 ft 7 kts 257°
2026-05-04 19:36 51.15423 -0.18266 200 ft 7 kts 219°
2026-05-04 19:36 51.15371 -0.18271 200 ft 8 kts 168°
2026-05-04 19:36 51.15313 -0.18251 200 ft 9 kts 167°
2026-05-04 19:36 51.15250 -0.18229 200 ft 9 kts 168°
2026-05-04 19:37 51.15192 -0.18261 200 ft 10 kts 242°
2026-05-04 19:37 51.15178 -0.18376 200 ft 11 kts 262°
2026-05-04 19:37 51.15163 -0.18502 200 ft 12 kts 258°
2026-05-04 19:37 51.15144 -0.18639 200 ft 13 kts 258°
2026-05-04 19:38 51.15123 -0.18793 200 ft 15 kts 257°
2026-05-04 19:38 51.15099 -0.18966 200 ft 16 kts 258°
2026-05-04 19:38 51.15074 -0.19147 200 ft 16 kts 258°
2026-05-04 19:38 51.15029 -0.19269 200 ft 13 kts 186°
2026-05-04 19:39 51.14956 -0.19332 200 ft 13 kts 253°
2026-05-04 19:39 51.14930 -0.19496 199 ft 17 kts 257°
2026-05-04 19:39 51.14903 -0.19708 200 ft 21 kts 258°
2026-05-04 19:39 51.14871 -0.19944 200 ft 22 kts 256°
2026-05-04 19:40 51.14836 -0.20186 200 ft 22 kts 259°
2026-05-04 19:40 51.14804 -0.20434 200 ft 23 kts 258°
2026-05-04 19:40 51.14770 -0.20684 200 ft 22 kts 257°
2026-05-04 19:40 51.14736 -0.20929 200 ft 22 kts 257°
2026-05-04 19:41 51.14706 -0.21149 200 ft 16 kts 257°
2026-05-04 19:41 51.14698 -0.21203 200 ft 1 kts 257°
2026-05-04 19:41 51.14695 -0.21224 199 ft 2 kts 258°
2026-05-04 19:41 51.14686 -0.21283 200 ft 6 kts 253°
2026-05-04 19:42 51.14668 -0.21325 200 ft 0 kts 215°
2026-05-04 19:43 51.14663 -0.21329 200 ft 2 kts 206°
2026-05-04 19:43 51.14653 -0.21334 200 ft 1 kts 189°
2026-05-04 19:44 51.14627 -0.21330 199 ft 6 kts 169°
2026-05-04 19:44 51.14577 -0.21307 200 ft 8 kts 154°
2026-05-04 19:44 51.14529 -0.21244 200 ft 10 kts 124°
2026-05-04 19:44 51.14523 -0.21134 200 ft 11 kts 77°
2026-05-04 19:45 51.14573 -0.20786 200 ft 66 kts 78°
2026-05-04 19:45 51.14722 -0.19708 200 ft 131 kts 78°
2026-05-04 19:45 51.14944 -0.18057 431 ft 162 kts 77°
2026-05-04 19:45 51.15173 -0.16367 1171 ft 157 kts 75°
2026-05-04 19:46 51.15425 -0.14666 1682 ft 167 kts 75°
2026-05-04 19:46 51.15675 -0.12760 2006 ft 187 kts 77°
2026-05-04 19:46 51.15950 -0.10605 2392 ft 207 kts 76°
2026-05-04 19:46 51.16231 -0.08316 3001 ft 217 kts 76°
2026-05-04 19:47 51.16877 -0.06180 3684 ft 220 kts 44°
2026-05-04 19:47 51.18205 -0.05092 4414 ft 222 kts
2026-05-04 19:47 51.19738 -0.05222 5193 ft 224 kts 353°
2026-05-04 19:47 51.21258 -0.05812 5833 ft 233 kts 336°
2026-05-04 19:48 51.22534 -0.07440 6416 ft 245 kts 304°
2026-05-04 19:48 51.23089 -0.09987 7123 ft 251 kts 275°
2026-05-04 19:48 51.22902 -0.12838 7473 ft 273 kts 254°
2026-05-04 19:48 51.22350 -0.15806 8062 ft 284 kts 254°
2026-05-04 19:49 51.21806 -0.18827 8887 ft 286 kts 255°
2026-05-04 19:49 51.21278 -0.21880 9721 ft 288 kts 255°
2026-05-04 19:49 51.20802 -0.24969 10482 ft 291 kts 260°
2026-05-04 19:49 51.20491 -0.28183 11163 ft 297 kts 263°
2026-05-04 19:50 51.20195 -0.31463 11874 ft 301 kts 262°
2026-05-04 19:50 51.19860 -0.34761 12573 ft 305 kts 261°
2026-05-04 19:50 51.19459 -0.38100 13250 ft 309 kts 259°
2026-05-04 19:50 51.19023 -0.41463 13917 ft 312 kts 258°
2026-05-04 19:51 51.18574 -0.44863 14566 ft 316 kts 258°
2026-05-04 19:51 51.18121 -0.48296 15216 ft 319 kts 258°
2026-05-04 19:51 51.17624 -0.51742 15846 ft 322 kts 255°
2026-05-04 19:51 51.16944 -0.55151 16442 ft 326 kts 249°
2026-05-04 19:52 51.16080 -0.58558 16753 ft 340 kts 247°
2026-05-04 19:52 51.15136 -0.62091 17003 ft 354 kts 246°
2026-05-04 19:52 51.14152 -0.65747 17249 ft 367 kts 246°
2026-05-04 19:52 51.13129 -0.69551 17489 ft 380 kts 246°
2026-05-04 19:53 51.12083 -0.73447 17856 ft 388 kts 246°
2026-05-04 19:53 51.11024 -0.77395 18370 ft 391 kts 246°
2026-05-04 19:53 51.09958 -0.81368 18926 ft 393 kts 246°
2026-05-04 19:53 51.08888 -0.85352 19468 ft 394 kts 246°
2026-05-04 19:54 51.07807 -0.89367 20002 ft 396 kts 245°
2026-05-04 19:54 51.06724 -0.93384 20524 ft 398 kts 245°
2026-05-04 19:54 51.05683 -0.97237 21031 ft 399 kts 245°
2026-05-04 19:54 51.04589 -1.01281 21536 ft 401 kts 245°
2026-05-04 19:55 51.03489 -1.05340 22036 ft 402 kts 245°
2026-05-04 19:55 51.02380 -1.09425 22522 ft 404 kts 245°
2026-05-04 19:55 51.01271 -1.13506 22991 ft 405 kts 245°
2026-05-04 19:55 51.00149 -1.17621 23485 ft 406 kts 245°
2026-05-04 19:56 50.99030 -1.21722 23949 ft 407 kts 244°
2026-05-04 19:56 50.97905 -1.25830 24381 ft 408 kts 244°
2026-05-04 19:56 50.96744 -1.29931 24763 ft 409 kts 240°
2026-05-04 19:56 50.95187 -1.33672 25126 ft 408 kts 228°
2026-05-04 19:57 50.93184 -1.36830 25510 ft 407 kts 217°
2026-05-04 19:57 50.90882 -1.39402 25881 ft 407 kts 212°
2026-05-04 19:57 50.88511 -1.41867 26244 ft 409 kts 212°
2026-05-04 19:57 50.86121 -1.44332 26601 ft 411 kts 212°
2026-05-04 19:58 50.83725 -1.46804 26932 ft 413 kts 212°
2026-05-04 19:58 50.81324 -1.49286 27264 ft 415 kts 212°
2026-05-04 19:58 50.78913 -1.51778 27595 ft 416 kts 211°
2026-05-04 19:58 50.76494 -1.54278 27981 ft 417 kts 211°
2026-05-04 19:59 50.74073 -1.56779 28364 ft 417 kts 211°
2026-05-04 19:59 50.71657 -1.59273 28726 ft 417 kts 211°
2026-05-04 19:59 50.69231 -1.61775 28988 ft 418 kts 211°
2026-05-04 20:00 50.64352 -1.66796 29002 ft 419 kts 211°
2026-05-04 20:00 50.58660 -1.72643 29006 ft 419 kts 210°
2026-05-04 20:01 50.54604 -1.76796 29005 ft 419 kts 210°
2026-05-04 20:01 50.49734 -1.81770 29005 ft 418 kts 210°
2026-05-04 20:02 50.44868 -1.86727 29004 ft 418 kts 210°
2026-05-04 20:02 50.39998 -1.91677 29004 ft 418 kts 210°
2026-05-04 20:03 50.35127 -1.96618 29007 ft 419 kts 210°
2026-05-04 20:03 50.30254 -2.01547 29000 ft 418 kts 210°
2026-05-04 20:04 50.25176 -2.05799 29003 ft 414 kts 198°
2026-05-04 20:04 50.19622 -2.07852 29001 ft 410 kts 185°
2026-05-04 20:05 50.13939 -2.08627 28996 ft 411 kts 184°
2026-05-04 20:05 50.08255 -2.09355 28998 ft 411 kts 183°
2026-05-04 20:06 50.02569 -2.10089 28997 ft 411 kts 183°
2026-05-04 20:06 49.96883 -2.10617 28994 ft 410 kts 180°
2026-05-04 20:07 49.91193 -2.10586 28993 ft 410 kts 179°
2026-05-04 20:07 49.85504 -2.10569 28994 ft 409 kts 179°
2026-05-04 20:08 49.79798 -2.10540 28995 ft 410 kts 179°
2026-05-04 20:08 49.74121 -2.10219 28995 ft 409 kts 173°
2026-05-04 20:09 49.68540 -2.08722 28998 ft 407 kts 166°
2026-05-04 20:09 49.63099 -2.06378 28998 ft 407 kts 164°
2026-05-04 20:10 49.57666 -2.04001 28991 ft 406 kts 164°
2026-05-04 20:10 49.52248 -2.01633 28987 ft 406 kts 164°
2026-05-04 20:11 49.46829 -1.99270 28986 ft 406 kts 164°
2026-05-04 20:11 49.41409 -1.96906 28980 ft 406 kts 164°
2026-05-04 20:12 49.35999 -1.94554 28984 ft 405 kts 164°
2026-05-04 20:12 49.30581 -1.92202 28978 ft 405 kts 164°
2026-05-04 20:13 49.25166 -1.89857 28979 ft 405 kts 164°
2026-05-04 20:13 49.19767 -1.87524 28977 ft 404 kts 164°
2026-05-04 20:14 49.14380 -1.85203 28976 ft 403 kts 164°
2026-05-04 20:14 49.08991 -1.82885 28979 ft 404 kts 164°
2026-05-04 20:15 49.03596 -1.80570 28976 ft 403 kts 164°
2026-05-04 20:15 48.98201 -1.78262 28973 ft 403 kts 164°
2026-05-04 20:16 48.92769 -1.76208 28972 ft 404 kts 169°
2026-05-04 20:16 48.87195 -1.75229 28973 ft 404 kts 176°
2026-05-04 20:17 48.81577 -1.75102 28970 ft 404 kts 178°
2026-05-04 20:17 48.75969 -1.75021 28970 ft 403 kts 178°
2026-05-04 20:18 48.70374 -1.74946 28967 ft 403 kts 178°
2026-05-04 20:18 48.64779 -1.74875 28963 ft 403 kts 178°
2026-05-04 20:19 48.59195 -1.74806 28961 ft 402 kts 178°
2026-05-04 20:19 48.53597 -1.74736 28961 ft 402 kts 178°
2026-05-04 20:20 48.48016 -1.74667 28959 ft 401 kts 178°
2026-05-04 20:20 48.42432 -1.74599 28959 ft 402 kts 178°
2026-05-04 20:21 48.36855 -1.74530 28958 ft 402 kts 178°
2026-05-04 20:21 48.28475 -1.74428 28205 ft 404 kts 178°
2026-05-04 20:22 48.25670 -1.74393 27450 ft 404 kts 178°
2026-05-04 20:22 48.22875 -1.74359 26708 ft 403 kts 178°
2026-05-04 20:22 48.20105 -1.74326 26199 ft 395 kts 178°
2026-05-04 20:22 48.17389 -1.74294 25694 ft 389 kts 179°
2026-05-04 20:23 48.14712 -1.74262 25185 ft 383 kts 179°
2026-05-04 20:23 48.12070 -1.74231 24666 ft 378 kts 178°
2026-05-04 20:23 48.09465 -1.74271 24157 ft 373 kts 182°
2026-05-04 20:23 48.06907 -1.74698 23658 ft 370 kts 188°
2026-05-04 20:24 48.04410 -1.75530 23156 ft 368 kts 194°
2026-05-04 20:24 48.01978 -1.76697 22652 ft 366 kts 197°
2026-05-04 20:24 47.99581 -1.77923 22152 ft 363 kts 197°
2026-05-04 20:24 47.97200 -1.79150 21660 ft 361 kts 197°
2026-05-04 20:25 47.94835 -1.80367 21169 ft 359 kts 197°
2026-05-04 20:25 47.92483 -1.81576 20674 ft 358 kts 197°
2026-05-04 20:25 47.90140 -1.82777 20184 ft 357 kts 197°
2026-05-04 20:25 47.87792 -1.83980 19695 ft 356 kts 197°
2026-05-04 20:26 47.85452 -1.85176 19204 ft 355 kts 197°
2026-05-04 20:26 47.83125 -1.86364 18713 ft 355 kts 197°
2026-05-04 20:26 47.80797 -1.87551 18218 ft 354 kts 197°
2026-05-04 20:26 47.78471 -1.88736 17720 ft 354 kts 197°
2026-05-04 20:27 47.76146 -1.89921 17224 ft 354 kts 197°
2026-05-04 20:27 47.73818 -1.91105 16723 ft 354 kts 197°
2026-05-04 20:27 47.71497 -1.92286 16226 ft 353 kts 197°
2026-05-04 20:27 47.69176 -1.93464 15729 ft 353 kts 197°
2026-05-04 20:28 47.66858 -1.94630 15218 ft 353 kts 195°
2026-05-04 20:28 47.64454 -1.95175 14687 ft 350 kts 176°
2026-05-04 20:28 47.62086 -1.94488 14202 ft 346 kts 158°
2026-05-04 20:28 47.59918 -1.92991 13730 ft 343 kts 152°
2026-05-04 20:29 47.57794 -1.91411 13253 ft 342 kts 152°
2026-05-04 20:29 47.55676 -1.89837 12770 ft 341 kts 152°
2026-05-04 20:29 47.53562 -1.88281 12292 ft 340 kts 153°
2026-05-04 20:29 47.51452 -1.86740 11809 ft 338 kts 153°
2026-05-04 20:30 47.49352 -1.85217 11335 ft 336 kts 153°
2026-05-04 20:30 47.47260 -1.83703 10863 ft 334 kts 153°
2026-05-04 20:30 47.45176 -1.82209 10390 ft 332 kts 155°
2026-05-04 20:30 47.42954 -1.81358 9898 ft 332 kts 176°
2026-05-04 20:31 47.40657 -1.81821 9754 ft 338 kts 196°
2026-05-04 20:31 47.38436 -1.82982 9780 ft 340 kts 199°
2026-05-04 20:31 47.36216 -1.84188 9829 ft 339 kts 199°
2026-05-04 20:31 47.34064 -1.85354 9912 ft 321 kts 199°
2026-05-04 20:32 47.32023 -1.86452 9918 ft 303 kts 199°
2026-05-04 20:32 47.30090 -1.87486 9775 ft 292 kts 199°
2026-05-04 20:32 47.28183 -1.88497 9374 ft 291 kts 199°
2026-05-04 20:32 47.26276 -1.89505 8992 ft 290 kts 199°
2026-05-04 20:33 47.24378 -1.90508 8610 ft 288 kts 199°
2026-05-04 20:33 47.22503 -1.91499 8273 ft 286 kts 199°
2026-05-04 20:33 47.20639 -1.92482 7920 ft 284 kts 199°
2026-05-04 20:33 47.18787 -1.93457 7569 ft 282 kts 199°
2026-05-04 20:34 47.16945 -1.94426 7218 ft 281 kts 199°
2026-05-04 20:34 47.15114 -1.95387 6876 ft 280 kts 199°
2026-05-04 20:34 47.13291 -1.96345 6528 ft 278 kts 199°
2026-05-04 20:34 47.11454 -1.97189 6159 ft 277 kts 187°
2026-05-04 20:35 47.09562 -1.96984 5779 ft 274 kts 160°
2026-05-04 20:35 47.07835 -1.95838 5442 ft 272 kts 150°
2026-05-04 20:35 47.06180 -1.94527 5112 ft 271 kts 150°
2026-05-04 20:35 47.04520 -1.93250 4773 ft 270 kts 152°
2026-05-04 20:36 47.02845 -1.92022 4441 ft 269 kts 153°
2026-05-04 20:36 47.01173 -1.90840 4182 ft 264 kts 153°
2026-05-04 20:36 46.99553 -1.89710 4097 ft 253 kts 154°
2026-05-04 20:36 46.98015 -1.88557 4006 ft 240 kts 143°
2026-05-04 20:37 46.96902 -1.86814 4001 ft 235 kts 119°
2026-05-04 20:37 46.96125 -1.84693 4004 ft 237 kts 114°
2026-05-04 20:37 46.95403 -1.82530 4003 ft 236 kts 113°
2026-05-04 20:37 46.94710 -1.80354 3969 ft 236 kts 104°
2026-05-04 20:38 46.94667 -1.78013 3631 ft 233 kts 69°
2026-05-04 20:38 46.95561 -1.76131 3310 ft 226 kts 36°
2026-05-04 20:38 46.96875 -1.74937 3073 ft 220 kts 25°
2026-05-04 20:38 46.98222 -1.74005 2998 ft 207 kts 23°
2026-05-04 20:39 46.99475 -1.73132 2987 ft 193 kts 24°
2026-05-04 20:39 47.00656 -1.72269 3049 ft 182 kts 25°
2026-05-04 20:39 47.01736 -1.71453 2841 ft 168 kts 25°
2026-05-04 20:39 47.02725 -1.70693 2621 ft 154 kts 24°
2026-05-04 20:40 47.03637 -1.69990 2377 ft 141 kts 24°
2026-05-04 20:40 47.04493 -1.69332 2173 ft 137 kts 23°
2026-05-04 20:40 47.05335 -1.68686 1995 ft 136 kts 23°
2026-05-04 20:40 47.06175 -1.68043 1823 ft 136 kts 22°
2026-05-04 20:41 47.07013 -1.67402 1652 ft 135 kts 22°
2026-05-04 20:41 47.07849 -1.66770 1477 ft 135 kts 22°
2026-05-04 20:41 47.08686 -1.66138 1290 ft 135 kts 24°
2026-05-04 20:41 47.09509 -1.65474 1110 ft 135 kts 25°
2026-05-04 20:42 47.10339 -1.64833 939 ft 134 kts 23°
2026-05-04 20:42 47.11175 -1.64226 726 ft 134 kts 24°
2026-05-04 20:42 47.12007 -1.63604 553 ft 134 kts 25°
2026-05-04 20:42 47.12829 -1.62963 378 ft 134 kts 25°
2026-05-04 20:43 47.13660 -1.62337 218 ft 135 kts 25°
2026-05-04 20:43 47.14491 -1.61702 91 ft 130 kts 26°
2026-05-04 20:43 47.15182 -1.61178 93 ft 88 kts 27°
2026-05-04 20:43 47.15574 -1.60877 93 ft 38 kts 27°
2026-05-04 20:44 47.15673 -1.60746 93 ft 11 kts 90°
2026-05-04 20:44 47.15644 -1.60659 93 ft 6 kts 125°
2026-05-04 20:44 47.15619 -1.60607 94 ft 5 kts 124°
2026-05-04 20:44 47.15612 -1.60570 94 ft 3 kts 63°
2026-05-04 20:45 47.15640 -1.60553 94 ft 5 kts 14°
2026-05-04 20:45 47.15680 -1.60527 93 ft 7 kts 25°
2026-05-04 20:45 47.15720 -1.60476 93 ft 8 kts 71°
2026-05-04 20:45 47.15699 -1.60395 94 ft 9 kts 133°
2026-05-04 20:46 47.15648 -1.60326 94 ft 10 kts 138°
2026-05-04 20:46 47.15636 -1.60263 95 ft 7 kts 36°
2026-05-04 20:46 47.15674 -1.60226 96 ft 5 kts 36°
2026-05-04 20:46 47.15684 -1.60216 96 ft 0 kts 36°
2026-05-04 20:47 47.15686 -1.60214 96 ft 0 kts 35°
2026-05-04 20:47 47.15686 -1.60213 96 ft 0 kts 35°